Location: Brachstadt
(48.6975°N, 10.6755°E)
Time: 08:55:04
(UTC+00:00)

Cosmos 2082 Rocket - Pass Details

Date: 18 September 2020
Orbit: 834 x 853 km, 71.0° (Epoch: 24 October)

Event Time Altitude Azimuth Distance (km) Brightness Sun altitude
Rises 22:23:45 0° 324° (NW) 3,392 6.1 -38.9°
Reaches altitude 10° 22:26:29 10° 313° (NW) 2,455 5.1 -39.0°
Enters shadow 22:28:05 17° 301° (WNW) 1,986 4.5 -39.0°
